Willmar, MN

12:48 AM CDT on March 27, 2017 (GMT -0500)
Willmar

Weather History for KBDH - April, 2012

Change the Weather History Date:

Sunday, April 29, 2012

  Actual Average (KBBB) Record (KBBB)
Temperature  
Mean Temperature 48 °F -  
Max Temperature 55 °F 63 °F 122 °F (1997)
Min Temperature 42 °F 40 °F 18 °F (1958)
Degree Days  
Heating Degree Days 16    
Moisture  
Dew Point 44 °F    
Average Humidity 86    
Maximum Humidity 100    
Minimum Humidity 67    
Precipitation  
Precipitation 0.00 in - - ()
Sea Level Pressure  
Sea Level Pressure 30.16 in    
Wind  
Wind Speed 12 mph (SE)    
Max Wind Speed 16 mph    
Max Gust Speed 20 mph    
Visibility 8 miles    
Events Rain    
Averages and records for this station are not official NWS values.
T = Trace of Precipitation, MM = Missing Value Source: NWS Daily Summary

Daily Weather History Graph

Daily Weather History Graph

Search for Another Location

Airport or City:

Trip Planner

Search our weather history database for the weather conditions in past years. The results will help you decide how hot, cold, wet, or windy it might be!

Date:

Astronomy

Apr. 29, 2012 Rise Set
Actual Time 6:11 AM CDT 8:24 PM CDT
Civil Twilight 5:39 AM CDT 8:56 PM CDT
Nautical Twilight 4:59 AM CDT 9:37 PM CDT
Astronomical Twilight 4:15 AM CDT 10:21 PM CDT
Moon 12:58 PM CDT (4/29) 2:22 AM CDT (4/29)
Length of Visible Light 15h 17m
Length of Day
14h 12m
First Quarter, 53% of the Moon is Illuminated
Apr 29
First Quarter
May 5
Full
May 12
Last Quarter
May 20
New
May 28
First Quarter

Hourly Weather History & Observations

Time (CDT) Temp. Windchill Dew Point Humidity Pressure Visibility Wind Dir Wind Speed Gust Speed Precip Events Conditions
12:06 AM 42.8 °F 35.1 °F 41.0 °F 93% 30.21 in 5.0 mi ESE 16.1 mph - N/A   Overcast
12:27 AM 42.8 °F 35.4 °F 41.0 °F 93% 30.21 in 5.0 mi ESE 15.0 mph - N/A   Overcast
12:46 AM 42.8 °F 35.4 °F 41.0 °F 93% 30.22 in 5.0 mi ESE 15.0 mph - N/A   Overcast
1:27 AM 42.8 °F 35.4 °F 42.8 °F 100% 30.21 in 3.0 mi ESE 15.0 mph - N/A Rain Light Rain
1:46 AM 42.8 °F 35.4 °F 42.8 °F 100% 30.21 in 5.0 mi ESE 15.0 mph - N/A   Overcast
2:06 AM 42.8 °F 35.1 °F 42.8 °F 100% 30.21 in 5.0 mi ESE 16.1 mph - N/A   Overcast
2:27 AM 42.8 °F 35.8 °F 42.8 °F 100% 30.21 in 7.0 mi ESE 13.8 mph - N/A   Overcast
2:46 AM 42.8 °F 36.2 °F 42.8 °F 100% 30.22 in 7.0 mi SE 12.7 mph - N/A   Overcast
3:07 AM 42.8 °F 35.1 °F 42.8 °F 100% 30.21 in 5.0 mi SE 16.1 mph 19.6 mph N/A   Overcast
3:27 AM 42.8 °F 36.6 °F 42.8 °F 100% 30.21 in 5.0 mi SE 11.5 mph - N/A   Overcast
3:46 AM 42.8 °F 36.2 °F 42.8 °F 100% 30.21 in 5.0 mi SE 12.7 mph - N/A   Overcast
4:07 AM 42.8 °F 37.5 °F 42.8 °F 100% 30.22 in 5.0 mi SE 9.2 mph - N/A   Overcast
4:26 AM 42.8 °F 36.2 °F 42.8 °F 100% 30.22 in 5.0 mi SE 12.7 mph 18.4 mph N/A   Overcast
4:46 AM 42.8 °F 35.4 °F 42.8 °F 100% 30.21 in 5.0 mi SE 15.0 mph - N/A   Overcast
5:07 AM 42.8 °F 35.4 °F 42.8 °F 100% 30.21 in 5.0 mi SE 15.0 mph - N/A   Overcast
5:26 AM 42.8 °F 35.8 °F 42.8 °F 100% 30.20 in 5.0 mi SE 13.8 mph - N/A   Overcast
5:47 AM 42.8 °F 36.2 °F 42.8 °F 100% 30.20 in 5.0 mi SE 12.7 mph - N/A   Overcast
6:07 AM 42.8 °F 35.8 °F 42.8 °F 100% 30.19 in 5.0 mi SE 13.8 mph - N/A   Overcast
6:26 AM 42.8 °F 36.6 °F 42.8 °F 100% 30.20 in 4.0 mi SE 11.5 mph - N/A   Overcast
6:47 AM 42.8 °F 35.4 °F 42.8 °F 100% 30.20 in 3.0 mi SE 15.0 mph - N/A   Overcast
7:07 AM 42.8 °F 37.0 °F 42.8 °F 100% 30.20 in 4.0 mi SE 10.4 mph - N/A   Overcast
7:26 AM 42.8 °F 37.0 °F 42.8 °F 100% 30.21 in 4.0 mi SE 10.4 mph - N/A   Overcast
7:47 AM 42.8 °F 37.0 °F 42.8 °F 100% 30.21 in 4.0 mi SE 10.4 mph - N/A   Overcast
8:07 AM 44.6 °F 39.2 °F 42.8 °F 93% 30.22 in 4.0 mi SE 10.4 mph - N/A   Overcast
8:26 AM 44.6 °F 39.2 °F 42.8 °F 93% 30.23 in 5.0 mi SSE 10.4 mph - N/A   Overcast
8:47 AM 44.6 °F 38.8 °F 42.8 °F 93% 30.22 in 5.0 mi SSE 11.5 mph - N/A   Overcast
9:07 AM 44.6 °F 38.8 °F 44.6 °F 100% 30.21 in 5.0 mi SSE 11.5 mph - N/A   Overcast
9:26 AM 44.6 °F 40.2 °F 44.6 °F 100% 30.22 in 5.0 mi SSE 8.1 mph - N/A   Overcast
9:47 AM 46.4 °F 41.5 °F 44.6 °F 93% 30.20 in 7.0 mi SSE 10.4 mph - N/A   Overcast
10:07 AM 46.4 °F 41.5 °F 44.6 °F 93% 30.21 in 7.0 mi SSE 10.4 mph - N/A   Overcast
10:26 AM 46.4 °F 40.7 °F 44.6 °F 93% 30.21 in 7.0 mi SSE 12.7 mph - N/A   Overcast
10:47 AM 48.2 °F - 44.6 °F 87% 30.21 in 10.0 mi SSE 12.7 mph - N/A   Overcast
11:07 AM 48.2 °F - 42.8 °F 82% 30.20 in 10.0 mi SE 11.5 mph - N/A   Overcast
11:26 AM 48.2 °F - 42.8 °F 82% 30.21 in 10.0 mi SSE 11.5 mph - N/A   Overcast
11:47 AM 48.2 °F - 42.8 °F 82% 30.21 in 10.0 mi SE 12.7 mph - N/A   Overcast
12:07 PM 50.0 °F - 42.8 °F 76% 30.20 in 10.0 mi SE 13.8 mph 17.3 mph N/A   Overcast
12:26 PM 51.8 °F - 44.6 °F 76% 30.19 in 10.0 mi SE 11.5 mph - N/A   Overcast
12:47 PM 51.8 °F - 44.6 °F 76% 30.19 in 10.0 mi SSE 9.2 mph - N/A   Overcast
1:06 PM 51.8 °F - 44.6 °F 76% 30.18 in 10.0 mi SE 11.5 mph - N/A   Overcast
1:27 PM 51.8 °F - 44.6 °F 76% 30.17 in 10.0 mi SE 11.5 mph - N/A   Overcast
1:47 PM 51.8 °F - 44.6 °F 76% 30.16 in 10.0 mi SE 12.7 mph 18.4 mph N/A   Overcast
2:06 PM 51.8 °F - 44.6 °F 76% 30.16 in 10.0 mi SE 11.5 mph - N/A   Overcast
2:27 PM 51.8 °F - 44.6 °F 76% 30.16 in 10.0 mi SE 9.2 mph - N/A   Overcast
2:46 PM 51.8 °F - 44.6 °F 76% 30.16 in 10.0 mi ESE 9.2 mph - N/A   Overcast
3:06 PM 50.0 °F - 44.6 °F 82% 30.15 in 10.0 mi East 10.4 mph - N/A   Overcast
3:27 PM 50.0 °F - 44.6 °F 82% 30.14 in 10.0 mi East 9.2 mph - N/A   Overcast
3:46 PM 51.8 °F - 44.6 °F 76% 30.14 in 10.0 mi SE 5.8 mph - N/A   Overcast
4:06 PM 51.8 °F - 44.6 °F 76% 30.13 in 10.0 mi SSE 5.8 mph - N/A   Overcast
4:27 PM 53.6 °F - 44.6 °F 72% 30.11 in 10.0 mi SE 8.1 mph - N/A   Overcast
4:46 PM 55.4 °F - 44.6 °F 67% 30.10 in 10.0 mi SE 9.2 mph - N/A   Scattered Clouds
5:07 PM 53.6 °F - 44.6 °F 72% 30.09 in 10.0 mi ESE 10.4 mph 16.1 mph N/A   Clear
5:27 PM 55.4 °F - 44.6 °F 67% 30.08 in 10.0 mi ESE 13.8 mph - N/A   Scattered Clouds
5:46 PM 55.4 °F - 44.6 °F 67% 30.07 in 10.0 mi ESE 11.5 mph - N/A   Scattered Clouds
6:07 PM 55.4 °F - 44.6 °F 67% 30.08 in 10.0 mi ESE 9.2 mph - N/A   Scattered Clouds
6:27 PM 55.4 °F - 44.6 °F 67% 30.07 in 10.0 mi SE 10.4 mph - N/A   Mostly Cloudy
6:46 PM 55.4 °F - 44.6 °F 67% 30.07 in 10.0 mi SE 9.2 mph - N/A   Mostly Cloudy
7:07 PM 55.4 °F - 44.6 °F 67% 30.06 in 10.0 mi SE 9.2 mph - N/A   Overcast
7:26 PM 55.4 °F - 44.6 °F 67% 30.06 in 10.0 mi SE 6.9 mph - N/A   Overcast
7:47 PM 55.4 °F - 44.6 °F 67% 30.06 in 10.0 mi SE 6.9 mph - N/A   Overcast
8:07 PM 53.6 °F - 44.6 °F 72% 30.06 in 10.0 mi SE 9.2 mph - N/A   Overcast
8:26 PM 53.6 °F - 44.6 °F 72% 30.06 in 10.0 mi SSE 8.1 mph - N/A   Overcast
8:47 PM 53.6 °F - 44.6 °F 72% 30.07 in 10.0 mi SSE 5.8 mph - N/A Rain Light Rain
9:26 PM 53.6 °F - 44.6 °F 72% 30.08 in 10.0 mi Calm Calm - N/A   Overcast
9:47 PM 51.8 °F - 46.4 °F 82% 30.08 in 10.0 mi SW 3.5 mph - N/A   Overcast
10:07 PM 51.8 °F - 46.4 °F 82% 30.07 in 10.0 mi Calm Calm - N/A   Overcast
10:27 PM 51.8 °F - 46.4 °F 82% 30.06 in 10.0 mi Calm Calm - N/A   Overcast
10:47 PM 51.8 °F - 46.4 °F 82% 30.06 in 10.0 mi Calm Calm - N/A   Overcast
11:07 PM 50.0 °F - 46.4 °F 87% 30.05 in 7.0 mi Calm Calm - N/A   Overcast
11:26 PM 50.0 °F - 46.4 °F 87% 30.05 in 7.0 mi Calm Calm - N/A   Overcast
11:47 PM 50.0 °F - 46.4 °F 87% 30.04 in 7.0 mi Calm Calm - N/A   Overcast